﻿_id,日時,平均風速(m/s),平均風向,最大瞬間風速(m/s),最大風速時風向,気温(℃),湿度(%),10分間移動積算雨量(mm),1時間移動積算雨量(mm),日雨量(mm),累計雨量(mm)
1,2022-03-07T00:00:00,0.2,静穏,0.6,南,0.8,94.7,0,0,1,1
2,2022-03-07T00:01:00,0.2,静穏,0.6,南,0.7,94.7,0,0,0,1
3,2022-03-07T00:02:00,0.2,静穏,0.6,南,0.7,94.4,0,0,0,1
4,2022-03-07T00:03:00,0.3,南南西,0.9,南南西,0.6,94.5,0,0,0,1
5,2022-03-07T00:04:00,0.3,南南西,1,南,0.6,94.3,0,0,0,1
6,2022-03-07T00:05:00,0.3,南南西,1,南,0.5,94.2,0,0,0,1
7,2022-03-07T00:06:00,0.4,南,1,南,0.6,94.1,0,0,0,1
8,2022-03-07T00:07:00,0.5,南,1.2,南東,0.5,94.3,0,0,0,1
9,2022-03-07T00:08:00,0.6,南,1.2,南東,0.5,94.3,0,0,0,1
10,2022-03-07T00:09:00,0.6,南,1.2,南東,0.5,94.5,0,0,0,1
11,2022-03-07T00:10:00,0.6,南南東,1.2,南東,0.5,94.3,0,0,0,1
12,2022-03-07T00:11:00,0.7,南南東,1.2,南東,0.7,94.7,0,0,0,1
13,2022-03-07T00:12:00,0.6,南東,1.2,南東,0.8,95.2,0,0,0,1
14,2022-03-07T00:13:00,0.6,南東,1.2,南東,0.8,95.3,0,0,0,1
15,2022-03-07T00:14:00,0.6,東南東,1.2,南東,0.7,95.2,0,0,0,1
16,2022-03-07T00:15:00,0.6,東南東,1.2,南東,0.8,95.2,0,0,0,1
17,2022-03-07T00:16:00,0.6,東,1.2,南東,0.7,95.1,0,0,0,1
18,2022-03-07T00:17:00,0.6,東,1.2,南南東,0.9,94.9,0,0,0,1
19,2022-03-07T00:18:00,0.6,東,1.4,東北東,0.9,95.3,0,0,0,1
20,2022-03-07T00:19:00,0.7,東,1.4,東北東,0.7,95.1,0,0,0,1
21,2022-03-07T00:20:00,0.8,東北東,1.7,東北東,0.7,94.8,0,0,0,1
22,2022-03-07T00:21:00,0.9,東北東,1.7,東北東,0.7,94.7,0,0,0,1
23,2022-03-07T00:22:00,1,東,1.8,東,0.7,94.8,0,0,0,1
24,2022-03-07T00:23:00,1.1,東,1.8,東,0.8,94.8,0,0,0,1
25,2022-03-07T00:24:00,1.2,東,2.3,東北東,0.8,95.1,0,0,0,1
26,2022-03-07T00:25:00,1.3,東,2.3,東北東,0.8,95.1,0,0,0,1
27,2022-03-07T00:26:00,1.3,東北東,2.3,東北東,0.7,94.9,0,0,0,1
28,2022-03-07T00:27:00,1.3,東北東,2.3,東北東,0.7,94.6,0,0,0,1
29,2022-03-07T00:28:00,1.3,東北東,2.3,東北東,0.6,94.5,0,0,0,1
30,2022-03-07T00:29:00,1.3,東,2.3,東北東,0.7,94.5,0,0,0,1
31,2022-03-07T00:30:00,1.3,東,2.3,東北東,0.7,94.7,0,0,0,1
32,2022-03-07T00:31:00,1.3,東,2.3,東北東,0.7,94.7,0,0,0,1
33,2022-03-07T00:32:00,1.2,東,2.3,東北東,0.7,94.8,0,0,0,1
34,2022-03-07T00:33:00,1.2,東北東,2.3,東北東,0.6,94.8,0,0,0,1
35,2022-03-07T00:34:00,1.1,東北東,2.2,東南東,0.7,94.7,0,0,0,1
36,2022-03-07T00:35:00,1,東北東,2.2,東南東,0.5,94.5,0,0,0,1
37,2022-03-07T00:36:00,1,東北東,2.2,東南東,0.5,94.3,0,0,0,1
38,2022-03-07T00:37:00,1,東北東,2.2,東南東,0.5,94.4,0,0,0,1
39,2022-03-07T00:38:00,0.9,北東,2.2,東南東,0.5,94.4,0,0,0,1
40,2022-03-07T00:39:00,0.8,北東,2.2,東南東,0.4,94.3,0,0,0,1
41,2022-03-07T00:40:00,0.7,北北東,2.1,北北東,0.4,94.3,0,0,0,1
42,2022-03-07T00:41:00,0.7,北北東,2.1,北北東,0.3,94.1,0,0,0,1
43,2022-03-07T00:42:00,0.7,北北東,2.1,北北東,0.4,94.4,0,0,0,1
44,2022-03-07T00:43:00,0.6,北北東,2.1,北北東,0.5,94.8,0,0,0,1
45,2022-03-07T00:44:00,0.6,北,2.1,北北東,0.4,94.9,0,0,0,1
46,2022-03-07T00:45:00,0.6,北,2.1,北北東,0.4,94.5,0,0,0,1
47,2022-03-07T00:46:00,0.6,北,2.1,北北東,0.4,94.4,0,0,0,1
48,2022-03-07T00:47:00,0.5,北,1.6,北東,0.4,94.5,0,0,0,1
49,2022-03-07T00:48:00,0.5,北北東,1.6,北東,0.5,94.7,0,0,0,1
50,2022-03-07T00:49:00,0.5,北北東,1.6,北東,0.5,94.9,0,0,0,1
51,2022-03-07T00:50:00,0.6,北北東,1.6,北東,0.5,94.8,0,0,0,1
52,2022-03-07T00:51:00,0.5,北北東,1,北北東,0.4,94.6,0,0,0,1
53,2022-03-07T00:52:00,0.5,北北東,0.8,北北東,0.3,94.4,0,0,0,1
54,2022-03-07T00:53:00,0.5,北北東,0.8,北北東,0.4,94.4,0,0,0,1
55,2022-03-07T00:54:00,0.5,北東,0.8,北北東,0.3,94.6,0,0,0,1
56,2022-03-07T00:55:00,0.5,東北東,0.9,南南西,0.2,94.2,0,0,0,1
57,2022-03-07T00:56:00,0.5,東,0.9,南南西,0.2,94.1,0,0,0,1
58,2022-03-07T00:57:00,,"",,"",,,,,,
59,2022-03-07T00:58:00,0.5,東,1,北東,0.3,94.5,0,0,0,1
60,2022-03-07T00:59:00,0.5,東,1,北東,0.5,94.8,0,0,0,1
61,2022-03-07T01:00:00,0.4,東,1,北東,0.4,95.2,0,0,0,1
62,2022-03-07T01:01:00,0.4,東南東,1,北東,0.2,94.8,0,0,0,1
63,2022-03-07T01:02:00,0.4,南東,1,北東,0.1,94.3,0,0,0,1
64,2022-03-07T01:03:00,0.5,南東,1,北東,0,93.9,0,0,0,1
65,2022-03-07T01:04:00,0.5,南東,1,北東,0,93.6,0,0,0,1
66,2022-03-07T01:05:00,0.4,南東,1,北東,-0.1,93.5,0,0,0,1
67,2022-03-07T01:06:00,0.4,南東,1,北東,0,93.7,0,0,0,1
68,2022-03-07T01:07:00,0.4,南南東,1,北東,-0.1,93.9,0,0,0,1
69,2022-03-07T01:08:00,0.4,南南東,1,南南東,0,94.1,0,0,0,1
70,2022-03-07T01:09:00,0.4,南,1,南南東,0,94.4,0,0,0,1
71,2022-03-07T01:10:00,0.4,南,1,南南東,0,94.4,0,0,0,1
72,2022-03-07T01:11:00,0.4,南,1,南南東,0,94.4,0,0,0,1
73,2022-03-07T01:12:00,0.5,南,1.1,東北東,0,94.7,0,0,0,1
74,2022-03-07T01:13:00,0.5,南南東,1.1,東北東,0,94.9,0,0,0,1
75,2022-03-07T01:14:00,0.4,南東,1.1,東北東,0.2,94.9,0,0,0,1
76,2022-03-07T01:15:00,0.5,東南東,1.1,東北東,0.1,95.2,0,0,0,1
77,2022-03-07T01:16:00,0.5,東,1.1,東北東,0,95,0,0,0,1
78,2022-03-07T01:17:00,0.5,東北東,1.1,東北東,0,94,0,0,0,1
79,2022-03-07T01:18:00,0.5,東北東,1.1,東北東,0,94,0,0,0,1
80,2022-03-07T01:19:00,0.5,東北東,1.4,東南東,-0.2,94,0,0,0,1
81,2022-03-07T01:20:00,0.7,東北東,1.5,東,-0.2,93.9,0,0,0,1
82,2022-03-07T01:21:00,0.7,東北東,1.5,東,-0.2,94.2,0,0,0,1
83,2022-03-07T01:22:00,0.7,東北東,1.5,東,-0.3,94.1,0,0,0,1
84,2022-03-07T01:23:00,0.7,東北東,1.5,東,-0.4,93.7,0,0,0,1
85,2022-03-07T01:24:00,0.8,東,1.8,東南東,-0.4,93.7,0,0,0,1
86,2022-03-07T01:25:00,0.9,東,2,東南東,-0.3,94,0,0,0,1
87,2022-03-07T01:26:00,1.1,東,2.3,東,-0.2,94.2,0,0,0,1
88,2022-03-07T01:27:00,1.2,東,2.5,東,-0.2,94.7,0,0,0,1
89,2022-03-07T01:28:00,1.3,東,2.5,東,-0.1,94.9,0,0,0,1
90,2022-03-07T01:29:00,1.4,東,2.5,東,0,95.2,0,0,0,1
91,2022-03-07T01:30:00,1.4,東,2.5,東,0,95.3,0,0,0,1
92,2022-03-07T01:31:00,1.5,東,2.5,東,0,95.3,0,0,0,1
93,2022-03-07T01:32:00,1.5,東,2.5,東,-0.1,94.9,0,0,0,1
94,2022-03-07T01:33:00,1.5,東,2.5,東,-0.1,94.6,0,0,0,1
95,2022-03-07T01:34:00,1.4,東,2.5,東,-0.1,94.7,0,0,0,1
96,2022-03-07T01:35:00,1.5,東北東,2.5,東,-0.2,94.6,0,0,0,1
97,2022-03-07T01:36:00,1.4,東北東,2.5,東,-0.2,94.3,0,0,0,1
98,2022-03-07T01:37:00,1.4,東北東,2.3,北北東,-0.2,94.4,0,0,0,1
99,2022-03-07T01:38:00,1.4,北東,2.3,北北東,-0.2,94.5,0,0,0,1
100,2022-03-07T01:39:00,1.3,北東,2.3,北北東,-0.1,94.7,0,0,0,1
101,2022-03-07T01:40:00,1.3,北東,2.3,北北東,-0.1,94.8,0,0,0,1
102,2022-03-07T01:41:00,1.2,北北東,2.3,北北東,-0.1,94.7,0,0,0,1
103,2022-03-07T01:42:00,1.2,北北東,2.4,北北東,-0.2,94.7,0,0,0,1
104,2022-03-07T01:43:00,1.4,北北東,2.7,北北東,-0.2,94.7,0,0,0,1
105,2022-03-07T01:44:00,1.5,北北東,2.8,北東,-0.1,94.7,0,0,0,1
106,2022-03-07T01:45:00,1.4,北,2.8,北東,-0.1,94.8,0,0,0,1
107,2022-03-07T01:46:00,1.3,北,2.8,北東,-0.1,94.8,0,0,0,1
108,2022-03-07T01:47:00,1.2,北,2.8,北東,-0.2,94.6,0,0,0,1
109,2022-03-07T01:48:00,1.2,北,2.8,北東,-0.1,94.6,0,0,0,1
110,2022-03-07T01:49:00,1.1,北,2.8,北東,0,94.7,0,0,0,1
111,2022-03-07T01:50:00,1,北,2.8,北東,0,95.1,0,0,0,1
112,2022-03-07T01:51:00,0.9,北,2.8,北東,0,95.2,0,0,0,1
113,2022-03-07T01:52:00,0.8,北,2.8,北東,-0.1,95,0,0,0,1
114,2022-03-07T01:53:00,0.6,北,2.8,北東,-0.1,94.7,0,0,0,1
115,2022-03-07T01:54:00,0.6,北,1.8,北北東,-0.1,94.8,0,0,0,1
116,2022-03-07T01:55:00,0.5,北,1.8,北北東,0,94.9,0,0,0,1
117,2022-03-07T01:56:00,0.5,北北東,1.8,北北東,-0.1,95.1,0,0,0,1
118,2022-03-07T01:57:00,0.4,北北東,1.8,北北東,-0.2,94.6,0,0,0,1
119,2022-03-07T01:58:00,0.3,北北東,1.1,北北東,-0.1,94.5,0,0,0,1
120,2022-03-07T01:59:00,0.3,北北東,1.2,北東,-0.1,94.7,0,0,0,1
121,2022-03-07T02:00:00,0.4,北北東,1.6,北,0,94.9,0,0,0,1
122,2022-03-07T02:01:00,0.5,北北東,1.6,北,0,95,0,0,0,1
123,2022-03-07T02:02:00,0.5,北北東,1.6,北,0,95,0,0,0,1
124,2022-03-07T02:03:00,0.5,北北東,1.6,北,-0.1,94.9,0,0,0,1
125,2022-03-07T02:04:00,0.5,北北東,1.6,北,-0.1,94.8,0,0,0,1
126,2022-03-07T02:05:00,0.5,北,1.6,北,-0.2,94.7,0,0,0,1
127,2022-03-07T02:06:00,0.6,北北西,1.6,北,-0.2,94.5,0,0,0,1
128,2022-03-07T02:07:00,0.7,北北西,1.7,西北西,-0.2,94.6,0,0,0,1
129,2022-03-07T02:08:00,0.7,北西,1.7,西北西,-0.2,94.6,0,0,0,1
130,2022-03-07T02:09:00,0.8,北西,1.7,西北西,-0.2,94.7,0,0,0,1
131,2022-03-07T02:10:00,0.7,北西,1.7,西北西,-0.1,94.8,0,0,0,1
132,2022-03-07T02:11:00,0.7,西北西,1.7,西北西,-0.2,94.9,0,0,0,1
133,2022-03-07T02:12:00,0.7,西北西,1.7,西北西,-0.3,94.6,0,0,0,1
134,2022-03-07T02:13:00,0.8,北西,1.7,西北西,-0.3,94.3,0,0,0,1
135,2022-03-07T02:14:00,0.8,北西,1.7,西北西,-0.3,94.5,0,0,0,1
136,2022-03-07T02:15:00,0.8,北西,1.7,西北西,-0.3,94.6,0,0,0,1
137,2022-03-07T02:16:00,0.8,北北西,1.7,西北西,-0.2,94.7,0,0,0,1
138,2022-03-07T02:17:00,0.8,北北西,2.2,北北東,-0.1,95.1,0,0,0,1
139,2022-03-07T02:18:00,0.9,北,2.4,北東,-0.1,95.2,0,0,0,1
140,2022-03-07T02:19:00,1,北,3.1,北北東,0,95.2,0,0,0,1
141,2022-03-07T02:20:00,1.1,北,3.1,北北東,0,95.3,0,0,0,1
142,2022-03-07T02:21:00,1.2,北,3.1,北北東,0,95.3,0,0,0,1
143,2022-03-07T02:22:00,1.3,北,3.3,北東,0,95.3,0,0,0,1
144,2022-03-07T02:23:00,1.4,北,3.3,北東,0,95.2,0,0,0,1
145,2022-03-07T02:24:00,1.6,北北東,3.7,北,0.1,95.3,0,0,0,1
146,2022-03-07T02:25:00,1.8,北北東,4,北東,0.3,95.3,0,0,0,1
147,2022-03-07T02:26:00,2,北北東,4,北東,0.4,95.4,0,0,0,1
148,2022-03-07T02:27:00,2.1,北北東,4,北東,0.3,95.3,0,0,0,1
149,2022-03-07T02:28:00,2.2,北北東,4,北東,0.3,95.2,0,0,0,1
150,2022-03-07T02:29:00,2.2,北北東,4,北東,0.4,95.2,0,0,0,1
151,2022-03-07T02:30:00,2.3,北北東,4,北東,0.5,95.2,0,0,0,1
152,2022-03-07T02:31:00,2.5,北北東,4,北東,0.5,95.2,0,0,0,1
153,2022-03-07T02:32:00,2.4,北北東,4,北東,0.5,95.1,0,0,0,1
154,2022-03-07T02:33:00,2.5,北北東,4,北東,0.5,94.9,0,0,0,1
155,2022-03-07T02:34:00,2.6,北北東,4,北東,0.5,94.8,0,0,0,1
156,2022-03-07T02:35:00,2.6,北北東,3.9,北北東,0.5,94.5,0,0,0,1
157,2022-03-07T02:36:00,2.7,北北東,3.9,北北東,0.5,94.3,0,0,0,1
158,2022-03-07T02:37:00,2.8,北北東,3.9,北北東,0.5,94,0,0,0,1
159,2022-03-07T02:38:00,2.8,北北東,3.9,北北東,0.5,93.7,0,0,0,1
160,2022-03-07T02:39:00,2.8,北北東,3.9,北北東,0.5,93.6,0,0,0,1
161,2022-03-07T02:40:00,2.8,北北東,3.9,北北東,0.6,93.3,0,0,0,1
162,2022-03-07T02:41:00,2.8,北北東,3.9,北北東,0.6,93,0,0,0,1
163,2022-03-07T02:42:00,2.7,北北東,3.9,北北東,0.5,92.7,0,0,0,1
164,2022-03-07T02:43:00,2.7,北北東,3.9,北北東,0.6,92.4,0,0,0,1
165,2022-03-07T02:44:00,2.5,北北東,3.9,北北東,0.6,92,0,0,0,1
166,2022-03-07T02:45:00,2.4,北北東,3.7,北北東,0.6,91.9,0,0,0,1
167,2022-03-07T02:46:00,2.2,北北東,3.3,北北東,0.7,91.9,0,0,0,1
168,2022-03-07T02:47:00,2.1,北北東,2.8,北北東,0.9,91.9,0,0,0,1
169,2022-03-07T02:48:00,1.9,北北東,2.8,北北東,1,91.8,0,0,0,1
170,2022-03-07T02:49:00,1.7,北北東,2.8,北北東,1,91.2,0,0,0,1
171,2022-03-07T02:50:00,1.5,北北東,2.8,北北東,0.8,89.7,0,0,0,1
172,2022-03-07T02:51:00,1.3,北東,2.8,北北東,0.6,88.8,0,0,0,1
173,2022-03-07T02:52:00,1.2,北東,2.8,北北東,0.5,88.3,0,0,0,1
174,2022-03-07T02:53:00,1,北北東,2.8,北北東,0.4,88.3,0,0,0,1
175,2022-03-07T02:54:00,1,北北東,2.8,北北東,0.3,87.6,0,0,0,1
176,2022-03-07T02:55:00,0.9,北,2.8,北北東,0.2,87.6,0,0,0,1
177,2022-03-07T02:56:00,0.9,北北西,2.7,北北東,0.2,87.9,0,0,0,1
178,2022-03-07T02:57:00,0.8,北西,2,西,0.2,88.4,0,0,0,1
179,2022-03-07T02:58:00,0.9,西北西,2,西,0.2,88.6,0,0,0,1
180,2022-03-07T02:59:00,0.8,西,2,西,0.2,88.8,0,0,0,1
181,2022-03-07T03:00:00,0.9,西北西,2,西,0.2,89.2,0,0,0,1
182,2022-03-07T03:01:00,0.9,西,2,西,0.1,89.6,0,0,0,1
183,2022-03-07T03:02:00,1,西,2,西,0.1,89.7,0,0,0,1
184,2022-03-07T03:03:00,1,西,2,西,0.1,89.8,0,0,0,1
185,2022-03-07T03:04:00,0.9,西北西,2,西,0.1,90.1,0,0,0,1
186,2022-03-07T03:05:00,0.8,西北西,1.7,西,0.1,90.4,0,0,0,1
187,2022-03-07T03:06:00,0.8,西北西,1.4,北北西,0.1,90.6,0,0,0,1
188,2022-03-07T03:07:00,0.8,西北西,1.4,北北西,0.2,90.7,0,0,0,1
189,2022-03-07T03:08:00,0.7,西北西,1.4,北北西,0.1,90.7,0,0,0,1
190,2022-03-07T03:09:00,0.7,西,1.4,北北西,0,90.6,0,0,0,1
191,2022-03-07T03:10:00,0.7,西,1.4,北北西,0,90.5,0,0,0,1
192,2022-03-07T03:11:00,0.7,西,1.4,北北西,0,90.5,0,0,0,1
193,2022-03-07T03:12:00,0.6,西,1.4,北北西,0,90.7,0,0,0,1
194,2022-03-07T03:13:00,0.6,西,1.2,西南西,-0.1,90.6,0,0,0,1
195,2022-03-07T03:14:00,0.5,西,1.2,西南西,0,91,0,0,0,1
196,2022-03-07T03:15:00,0.5,西南西,1.2,西南西,0,91,0,0,0,1
197,2022-03-07T03:16:00,0.5,南西,1.2,西南西,-0.1,91.1,0,0,0,1
198,2022-03-07T03:17:00,0.6,南東,1.5,東南東,-0.1,91.1,0,0,0,1
199,2022-03-07T03:18:00,0.6,東南東,1.5,東南東,-0.1,91.2,0,0,0,1
200,2022-03-07T03:19:00,0.5,東,1.5,東南東,-0.1,91.4,0,0,0,1
201,2022-03-07T03:20:00,0.5,東,1.5,東南東,0,91.7,0,0,0,1
202,2022-03-07T03:21:00,0.5,東,1.5,東南東,-0.1,91.7,0,0,0,1
203,2022-03-07T03:22:00,0.5,東南東,1.5,東南東,-0.2,91.5,0,0,0,1
204,2022-03-07T03:23:00,0.5,東南東,1.5,東南東,-0.2,91.5,0,0,0,1
205,2022-03-07T03:24:00,0.5,東南東,1.5,東南東,-0.2,91.5,0,0,0,1
206,2022-03-07T03:25:00,0.5,南東,1.5,東南東,-0.2,91.4,0,0,0,1
207,2022-03-07T03:26:00,0.5,南東,1.5,東南東,-0.3,91.6,0,0,0,1
208,2022-03-07T03:27:00,0.4,南南東,1.4,東南東,-0.3,91.5,0,0,0,1
209,2022-03-07T03:28:00,0.4,南,1,南南東,-0.3,91.9,0,0,0,1
210,2022-03-07T03:29:00,0.4,南,1,南南東,-0.4,91.7,0,0,0,1
211,2022-03-07T03:30:00,0.5,南南西,1,南南東,-0.5,91.3,0,0,0,1
212,2022-03-07T03:31:00,0.6,南南西,1,南南東,-0.5,91.2,0,0,0,1
213,2022-03-07T03:32:00,0.6,南西,1.1,西南西,-0.5,91.5,0,0,0,1
214,2022-03-07T03:33:00,0.6,南西,1.1,西南西,-0.5,91.8,0,0,0,1
215,2022-03-07T03:34:00,0.6,南西,1.1,西南西,-0.5,91.9,0,0,0,1
216,2022-03-07T03:35:00,0.6,南西,1.1,西南西,-0.5,92.1,0,0,0,1
217,2022-03-07T03:36:00,0.6,南西,1.1,西南西,-0.5,92.2,0,0,0,1
218,2022-03-07T03:37:00,0.6,南西,1.1,西南西,-0.5,92.4,0,0,0,1
219,2022-03-07T03:38:00,0.6,南西,1.3,南,-0.6,92.4,0,0,0,1
220,2022-03-07T03:39:00,0.6,南西,1.3,南,-0.5,92.3,0,0,0,1
221,2022-03-07T03:40:00,0.6,南西,1.4,南,-0.4,92.7,0,0,0,1
222,2022-03-07T03:41:00,0.7,南西,1.4,南,-0.4,92.9,0,0,0,1
223,2022-03-07T03:42:00,0.6,南南西,1.4,南,-0.4,92.9,0,0,0,1
224,2022-03-07T03:43:00,0.6,南南西,1.4,南,-0.4,93.1,0,0,0,1
225,2022-03-07T03:44:00,0.6,南,1.4,南,-0.5,93,0,0,0,1
226,2022-03-07T03:45:00,0.6,南,1.4,南,-0.6,92.4,0,0,0,1
227,2022-03-07T03:46:00,0.6,南,1.4,南,-0.5,92.6,0,0,0,1
228,2022-03-07T03:47:00,0.6,南南東,1.4,南,-0.5,92.7,0,0,0,1
229,2022-03-07T03:48:00,0.6,南東,1.4,南,-0.7,92.6,0,0,0,1
230,2022-03-07T03:49:00,0.5,南東,1.4,南,-0.7,92.1,0,0,0,1
231,2022-03-07T03:50:00,0.5,東南東,1.2,南南西,-0.6,92.8,0,0,0,1
232,2022-03-07T03:51:00,0.4,東,0.8,南,-0.5,93,0,0,0,1
233,2022-03-07T03:52:00,0.4,東北東,0.7,東南東,-0.6,93.1,0,0,0,1
234,2022-03-07T03:53:00,0.4,北東,0.7,東南東,-0.7,92.7,0,0,0,1
235,2022-03-07T03:54:00,0.4,北東,0.7,東南東,-0.6,92.8,0,0,0,1
236,2022-03-07T03:55:00,0.3,北東,0.6,北東,-0.6,93.1,0,0,0,1
237,2022-03-07T03:56:00,0.3,北東,0.6,北東,-0.6,93.3,0,0,0,1
238,2022-03-07T03:57:00,0.3,北東,0.6,北東,-0.6,93.2,0,0,0,1
239,2022-03-07T03:58:00,0.2,静穏,0.6,北東,-0.7,93.1,0,0,0,1
240,2022-03-07T03:59:00,0.2,静穏,0.6,北東,-0.8,92.8,0,0,0,1
241,2022-03-07T04:00:00,0.3,北東,0.6,南南西,-0.8,92.8,0,0,0,1
242,2022-03-07T04:01:00,0.2,静穏,0.6,南南西,-0.7,93,0,0,0,1
243,2022-03-07T04:02:00,0.2,静穏,0.6,南南西,-0.7,93.2,0,0,0,1
244,2022-03-07T04:03:00,0.2,静穏,0.6,南南西,-0.5,93.4,0,0,0,1
245,2022-03-07T04:04:00,0.2,静穏,0.6,南南西,-0.5,93.8,0,0,0,1
246,2022-03-07T04:05:00,0.2,静穏,0.6,南南西,-0.5,93.8,0,0,0,1
247,2022-03-07T04:06:00,0.2,静穏,0.6,南南西,-0.5,93.8,0,0,0,1
248,2022-03-07T04:07:00,0.2,静穏,0.6,南南西,-0.4,93.8,0,0,0,1
249,2022-03-07T04:08:00,0.3,南,0.7,南南西,-0.3,94.1,0,0,0,1
250,2022-03-07T04:09:00,0.3,南,0.7,南南西,-0.3,94.2,0,0,0,1
251,2022-03-07T04:10:00,0.2,静穏,0.7,南南西,-0.4,94,0,0,0,1
252,2022-03-07T04:11:00,0.2,静穏,0.7,南南西,-0.4,93.7,0,0,0,1
253,2022-03-07T04:12:00,0.2,静穏,0.7,南南西,-0.4,93.8,0,0,0,1
254,2022-03-07T04:13:00,0.2,静穏,0.7,南南西,-0.4,93.8,0,0,0,1
255,2022-03-07T04:14:00,0.2,静穏,0.7,南南西,-0.3,93.8,0,0,0,1
256,2022-03-07T04:15:00,0.2,静穏,0.7,南南西,-0.2,94.1,0,0,0,1
257,2022-03-07T04:16:00,0.2,静穏,0.7,南南西,-0.1,94.4,0,0,0,1
258,2022-03-07T04:17:00,0.2,静穏,0.7,南南西,-0.1,94.6,0,0,0,1
259,2022-03-07T04:18:00,0.2,静穏,0.6,北東,-0.2,94.2,0,0,0,1
260,2022-03-07T04:19:00,0.3,東,0.6,北東,-0.2,94,0,0,0,1
261,2022-03-07T04:20:00,0.3,東北東,0.6,北東,-0.3,93.8,0,0,0,1
262,2022-03-07T04:21:00,0.3,東北東,0.6,北東,-0.3,93.6,0,0,0,1
263,2022-03-07T04:22:00,0.4,東北東,1.2,東北東,-0.3,93.5,0,0,0,1
264,2022-03-07T04:23:00,0.5,東北東,1.2,東北東,-0.3,93.7,0,0,0,1
265,2022-03-07T04:24:00,0.5,東北東,1.2,東北東,-0.2,94.1,0,0,0,1
266,2022-03-07T04:25:00,0.6,東北東,1.2,東北東,-0.2,94.1,0,0,0,1
267,2022-03-07T04:26:00,0.7,東北東,1.2,東北東,-0.3,94,0,0,0,1
268,2022-03-07T04:27:00,0.7,東北東,1.2,東北東,-0.2,94.1,0,0,0,1
269,2022-03-07T04:28:00,0.7,東北東,1.2,東北東,-0.1,94.3,0,0,0,1
270,2022-03-07T04:29:00,0.7,東北東,1.2,東北東,-0.1,94.4,0,0,0,1
271,2022-03-07T04:30:00,0.7,東北東,1.2,東北東,-0.1,94.3,0,0,0,1
272,2022-03-07T04:31:00,0.8,東北東,1.2,東北東,-0.1,94.2,0,0,0,1
273,2022-03-07T04:32:00,0.7,東北東,1.2,東北東,0,94.3,0,0,0,1
274,2022-03-07T04:33:00,0.6,東,1.1,北東,-0.2,94.2,0,0,0,1
275,2022-03-07T04:34:00,0.5,東,1.1,北東,-0.1,94.1,0,0,0,1
276,2022-03-07T04:35:00,0.5,東,0.9,東北東,-0.1,94.1,0,0,0,1
277,2022-03-07T04:36:00,0.4,東,0.9,東北東,-0.1,94,0,0,0,1
278,2022-03-07T04:37:00,0.4,東,0.9,東北東,0,94.2,0,0,0,1
279,2022-03-07T04:38:00,0.4,東,0.8,東,0,94.4,0,0,0,1
280,2022-03-07T04:39:00,0.4,東,0.8,東,0,94.5,0,0,0,1
281,2022-03-07T04:40:00,0.4,東,0.8,東,0,94.4,0,0,0,1
282,2022-03-07T04:41:00,0.4,東,0.8,東,0,94.4,0,0,0,1
283,2022-03-07T04:42:00,0.4,東,0.8,東,0,94.2,0,0,0,1
284,2022-03-07T04:43:00,0.4,東,0.8,東,-0.1,93.8,0,0,0,1
285,2022-03-07T04:44:00,0.4,東南東,0.8,東,0,93.8,0,0,0,1
286,2022-03-07T04:45:00,0.5,東南東,0.9,南西,-0.2,93.9,0,0,0,1
287,2022-03-07T04:46:00,0.5,南東,0.9,南西,-0.2,93.7,0,0,0,1
288,2022-03-07T04:47:00,0.5,南南東,0.9,南西,-0.2,93.6,0,0,0,1
289,2022-03-07T04:48:00,0.5,南,0.9,南西,-0.2,93.6,0,0,0,1
290,2022-03-07T04:49:00,0.5,南南西,0.9,南西,-0.3,93.6,0,0,0,1
291,2022-03-07T04:50:00,0.5,南南西,1.2,南西,-0.3,93.5,0,0,0,1
292,2022-03-07T04:51:00,0.6,南西,1.4,南西,-0.4,93.5,0,0,0,1
293,2022-03-07T04:52:00,0.7,南西,1.4,南西,-0.3,93.7,0,0,0,1
294,2022-03-07T04:53:00,0.8,南西,1.4,南西,-0.4,93.7,0,0,0,1
295,2022-03-07T04:54:00,0.8,南西,1.4,南西,-0.4,93.6,0,0,0,1
296,2022-03-07T04:55:00,0.8,南西,1.4,南西,-0.4,93.7,0,0,0,1
297,2022-03-07T04:56:00,0.7,南西,1.4,南西,-0.4,93.7,0,0,0,1
298,2022-03-07T04:57:00,0.7,南西,1.4,南西,-0.4,93.7,0,0,0,1
299,2022-03-07T04:58:00,0.7,南西,1.4,南西,-0.3,94,0,0,0,1
300,2022-03-07T04:59:00,0.6,南西,1.4,南西,-0.3,94.2,0,0,0,1
301,2022-03-07T05:00:00,0.6,南西,1.4,南西,-0.4,94.2,0,0,0,1
302,2022-03-07T05:01:00,0.5,南西,1.4,南西,-0.4,94,0,0,0,1
303,2022-03-07T05:02:00,0.4,南西,1.1,南西,-0.4,93.9,0,0,0,1
304,2022-03-07T05:03:00,0.4,南南西,1,南,-0.3,93.9,0,0,0,1
305,2022-03-07T05:04:00,0.4,南南西,1,南,-0.4,94.1,0,0,0,1
306,2022-03-07T05:05:00,0.4,南南西,1,南,-0.3,94,0,0,0,1
307,2022-03-07T05:06:00,0.4,南,1,南,-0.2,94.4,0,0,0,1
308,2022-03-07T05:07:00,0.4,南,1,南,-0.2,94.6,0,0,0,1
309,2022-03-07T05:08:00,0.4,南,1,南,-0.2,94.6,0,0,0,1
310,2022-03-07T05:09:00,0.5,南南東,1,南,-0.2,94.5,0,0,0,1
311,2022-03-07T05:10:00,0.5,南南東,1,南,-0.2,94.5,0,0,0,1
312,2022-03-07T05:11:00,0.4,南南東,1,南,-0.2,94.4,0,0,0,1
313,2022-03-07T05:12:00,0.4,南東,1,南南東,-0.2,94.3,0,0,0,1
314,2022-03-07T05:13:00,0.4,南東,1,南南東,-0.1,94.5,0,0,0,1
315,2022-03-07T05:14:00,0.4,南東,1,南南東,-0.2,94.7,0,0,0,1
316,2022-03-07T05:15:00,0.3,南東,0.7,南東,-0.2,94.5,0,0,0,1
317,2022-03-07T05:16:00,0.2,静穏,0.6,南東,-0.2,94.3,0,0,0,1
318,2022-03-07T05:17:00,0.2,静穏,0.6,南東,-0.2,94.4,0,0,0,1
319,2022-03-07T05:18:00,0.2,静穏,0.6,南東,-0.1,94.4,0,0,0,1
320,2022-03-07T05:19:00,0.2,静穏,0.6,南東,-0.1,94.6,0,0,0,1
321,2022-03-07T05:20:00,0.2,静穏,0.6,南東,0,94.8,0,0,0,1
322,2022-03-07T05:21:00,0.2,静穏,0.6,南東,0,94.8,0,0,0,1
323,2022-03-07T05:22:00,0.1,静穏,0.6,南東,0,95.1,0,0,0,1
324,2022-03-07T05:23:00,0.1,静穏,0.5,東南東,0,94.9,0,0,0,1
325,2022-03-07T05:24:00,0.1,静穏,0.3,東南東,-0.1,94.6,0,0,0,1
326,2022-03-07T05:25:00,0.1,静穏,0.3,東南東,-0.2,94.2,0,0,0,1
327,2022-03-07T05:26:00,0.1,静穏,0.3,東南東,-0.2,94.1,0,0,0,1
328,2022-03-07T05:27:00,0.1,静穏,0.4,東南東,-0.2,94.1,0,0,0,1
329,2022-03-07T05:28:00,0.1,静穏,0.6,南東,-0.2,94,0,0,0,1
330,2022-03-07T05:29:00,0.1,静穏,0.6,南東,0,94.6,0,0,0,1
331,2022-03-07T05:30:00,0.1,静穏,0.6,南東,0,95,0,0,0,1
332,2022-03-07T05:31:00,0.1,静穏,0.6,南東,-0.2,94.8,0,0,0,1
333,2022-03-07T05:32:00,0.1,静穏,0.6,南東,-0.2,94.4,0,0,0,1
334,2022-03-07T05:33:00,0.2,静穏,0.6,南東,-0.2,94.2,0,0,0,1
335,2022-03-07T05:34:00,0.2,静穏,0.6,南東,0,94.5,0,0,0,1
336,2022-03-07T05:35:00,0.2,静穏,0.6,南東,0,94.8,0,0,0,1
337,2022-03-07T05:36:00,0.2,静穏,0.6,南東,-0.1,94.6,0,0,0,1
338,2022-03-07T05:37:00,0.2,静穏,0.6,南東,-0.1,94.4,0,0,0,1
339,2022-03-07T05:38:00,0.2,静穏,0.5,南東,-0.1,94.5,0,0,0,1
340,2022-03-07T05:39:00,0.2,静穏,0.5,南東,-0.1,94.5,0,0,0,1
341,2022-03-07T05:40:00,0.3,東北東,0.8,南南東,-0.2,94.3,0,0,0,1
342,2022-03-07T05:41:00,0.3,東,1,南南東,-0.1,94.4,0,0,0,1
343,2022-03-07T05:42:00,0.3,東南東,1,南南東,-0.1,94.6,0,0,0,1
344,2022-03-07T05:43:00,0.3,東南東,1,南南東,0,94.6,0,0,0,1
345,2022-03-07T05:44:00,0.2,静穏,1,南南東,-0.2,94.5,0,0,0,1
346,2022-03-07T05:45:00,0.2,静穏,1,南南東,-0.2,94.2,0,0,0,1
347,2022-03-07T05:46:00,0.2,静穏,1,南南東,-0.2,94.2,0,0,0,1
348,2022-03-07T05:47:00,0.2,静穏,1,南南東,-0.1,94.4,0,0,0,1
349,2022-03-07T05:48:00,0.2,静穏,1,南南東,-0.1,94.6,0,0,0,1
350,2022-03-07T05:49:00,0.2,静穏,1,南南東,-0.2,94.4,0,0,0,1
351,2022-03-07T05:50:00,0.1,静穏,1,南南東,-0.2,94.2,0,0,0,1
352,2022-03-07T05:51:00,0.1,静穏,0.6,南南東,-0.2,94.2,0,0,0,1
353,2022-03-07T05:52:00,0.1,静穏,0.7,南西,-0.3,94.2,0,0,0,1
354,2022-03-07T05:53:00,0.2,静穏,1.1,北西,-0.3,94.3,0,0,0,1
355,2022-03-07T05:54:00,0.3,西南西,1.2,北西,-0.3,94.2,0,0,0,1
356,2022-03-07T05:55:00,0.3,西南西,1.2,北西,-0.3,94.2,0,0,0,1
357,2022-03-07T05:56:00,0.4,西南西,1.2,北西,-0.3,94.3,0,0,0,1
358,2022-03-07T05:57:00,0.4,南西,1.2,北西,-0.3,94.3,0,0,0,1
359,2022-03-07T05:58:00,0.5,南西,1.2,北西,-0.3,94.3,0,0,0,1
360,2022-03-07T05:59:00,0.5,西南西,1.2,北西,-0.2,94.6,0,0,0,1
361,2022-03-07T06:00:00,0.5,西南西,1.2,北西,-0.2,94.8,0,0,0,1
362,2022-03-07T06:01:00,0.5,西,1.2,北西,-0.3,94.5,0,0,0,1
363,2022-03-07T06:02:00,0.6,西,1.2,北西,-0.3,94.3,0,0,0,1
364,2022-03-07T06:03:00,0.5,西南西,1.2,北西,-0.3,94.4,0,0,0,1
365,2022-03-07T06:04:00,0.5,南西,1.1,北西,-0.2,94.6,0,0,0,1
366,2022-03-07T06:05:00,0.4,南西,0.9,南南西,-0.3,94.6,0,0,0,1
367,2022-03-07T06:06:00,0.4,南西,0.9,南南西,-0.3,94.5,0,0,0,1
368,2022-03-07T06:07:00,0.3,南西,0.8,西北西,-0.3,94.4,0,0,0,1
369,2022-03-07T06:08:00,0.3,南西,0.8,西北西,-0.3,94.5,0,0,0,1
370,2022-03-07T06:09:00,0.3,南南西,0.8,西北西,-0.3,94.7,0,0,0,1
371,2022-03-07T06:10:00,0.3,南南西,0.7,南南西,-0.3,94.6,0,0,0,1
372,2022-03-07T06:11:00,0.2,静穏,0.7,南南西,-0.3,94.6,0,0,0,1
373,2022-03-07T06:12:00,0.2,静穏,0.8,北北東,-0.3,94.7,0,0,0,1
374,2022-03-07T06:13:00,0.2,静穏,0.8,北北東,-0.2,94.9,0,0,0,1
375,2022-03-07T06:14:00,0.3,南東,0.8,北北東,-0.2,95,0,0,0,1
376,2022-03-07T06:15:00,0.3,東,0.9,北東,-0.2,95,0,0,0,1
377,2022-03-07T06:16:00,0.4,東北東,0.9,北東,-0.2,95.1,0,0,0,1
378,2022-03-07T06:17:00,0.5,北東,1.1,北北東,-0.1,95,0,0,0,1
379,2022-03-07T06:18:00,0.5,北東,1.1,北北東,-0.2,94.9,0,0,0,1
380,2022-03-07T06:19:00,0.5,北北東,1.1,北北東,-0.3,94.7,0,0,0,1
381,2022-03-07T06:20:00,0.5,北北東,1.1,北北東,-0.4,94.3,0,0,0,1
382,2022-03-07T06:21:00,0.5,北北東,1.1,北北東,-0.3,94.3,0,0,0,1
383,2022-03-07T06:22:00,0.5,北,1.1,北北東,-0.4,94.5,0,0,0,1
384,2022-03-07T06:23:00,0.4,北,1.1,北北東,-0.3,94.6,0,0,0,1
385,2022-03-07T06:24:00,0.4,北北西,1.1,北北東,-0.3,94.6,0,0,0,1
386,2022-03-07T06:25:00,0.3,北北西,1.1,北北東,-0.4,94.6,0,0,0,1
387,2022-03-07T06:26:00,0.3,北北西,1.1,北北東,-0.3,94.6,0,0,0,1
388,2022-03-07T06:27:00,0.2,静穏,0.8,北,-0.3,94.8,0,0,0,1
389,2022-03-07T06:28:00,0.2,静穏,0.5,北北西,-0.3,94.7,0,0,0,1
390,2022-03-07T06:29:00,0.2,静穏,0.5,北北西,-0.3,94.7,0,0,0,1
391,2022-03-07T06:30:00,0.1,静穏,0.5,北北西,-0.3,94.9,0,0,0,1
392,2022-03-07T06:31:00,0.1,静穏,0.5,北北西,-0.2,95,0,0,0,1
393,2022-03-07T06:32:00,0.1,静穏,0.5,北北西,-0.2,95.2,0,0,0,1
394,2022-03-07T06:33:00,0.1,静穏,0.5,北北西,-0.3,94.9,0,0,0,1
395,2022-03-07T06:34:00,0.1,静穏,0.5,北北西,-0.4,94.7,0,0,0,1
396,2022-03-07T06:35:00,0.1,静穏,0.5,北北西,-0.3,94.6,0,0,0,1
397,2022-03-07T06:36:00,0.1,静穏,0.4,東北東,-0.3,95,0,0,0,1
398,2022-03-07T06:37:00,0.1,静穏,0.4,東北東,-0.2,95.1,0,0,0,1
399,2022-03-07T06:38:00,0.1,静穏,0.4,東北東,-0.2,95.2,0,0,0,1
400,2022-03-07T06:39:00,0.1,静穏,0.4,東,-0.2,95.2,0,0,0,1
401,2022-03-07T06:40:00,0.1,静穏,0.4,東,-0.1,95.2,0,0,0,1
402,2022-03-07T06:41:00,0.1,静穏,0.4,東,-0.1,95.3,0,0,0,1
403,2022-03-07T06:42:00,0.1,静穏,0.4,東,-0.2,95.3,0,0,0,1
404,2022-03-07T06:43:00,0.1,静穏,0.4,東,-0.2,95.1,0,0,0,1
405,2022-03-07T06:44:00,0.1,静穏,0.4,東,-0.1,95.1,0,0,0,1
406,2022-03-07T06:45:00,0.1,静穏,0.4,東,0,95.3,0,0,0,1
407,2022-03-07T06:46:00,0.1,静穏,0.4,東,0,95.3,0,0,0,1
408,2022-03-07T06:47:00,0.1,静穏,0.5,南南西,0,95.4,0,0,0,1
409,2022-03-07T06:48:00,0.2,静穏,0.6,南南西,0,95.3,0,0,0,1
410,2022-03-07T06:49:00,0.2,静穏,0.6,南南西,0,95.3,0,0,0,1
411,2022-03-07T06:50:00,0.2,静穏,0.6,南南西,0,95.3,0,0,0,1
412,2022-03-07T06:51:00,0.2,静穏,0.6,南南西,-0.1,95.2,0,0,0,1
413,2022-03-07T06:52:00,0.2,静穏,0.6,南南西,0,95.1,0,0,0,1
414,2022-03-07T06:53:00,0.2,静穏,0.9,南南東,0,95.2,0,0,0,1
415,2022-03-07T06:54:00,0.3,南,0.9,南南東,0,95.3,0,0,0,1
416,2022-03-07T06:55:00,0.3,南,0.9,南南東,0.1,95.3,0,0,0,1
417,2022-03-07T06:56:00,0.4,南,0.9,南南東,0.2,95.4,0,0,0,1
418,2022-03-07T06:57:00,0.4,南,0.9,南南東,0.2,95.4,0,0,0,1
419,2022-03-07T06:58:00,0.4,南南東,0.9,南南東,0.2,95.3,0,0,0,1
420,2022-03-07T06:59:00,0.4,南南東,0.9,南南東,0.2,95.3,0,0,0,1
421,2022-03-07T07:00:00,0.5,南南東,0.9,南南東,0.1,95.2,0,0,0,1
422,2022-03-07T07:01:00,0.5,南東,0.9,南南東,0.1,95.2,0,0,0,1
423,2022-03-07T07:02:00,0.5,南東,0.9,南南東,0,95.1,0,0,0,1
424,2022-03-07T07:03:00,0.5,南東,1,東南東,0.1,95.1,0,0,0,1
425,2022-03-07T07:04:00,0.6,南東,1.5,東南東,0.2,95.2,0,0,0,1
426,2022-03-07T07:05:00,0.6,南東,1.5,東南東,0.2,95.3,0,0,0,1
427,2022-03-07T07:06:00,0.6,南東,1.5,東南東,0.2,95.3,0,0,0,1
428,2022-03-07T07:07:00,0.6,南東,1.5,東南東,0.2,95.2,0,0,0,1
429,2022-03-07T07:08:00,0.6,南東,1.5,東南東,0.1,95.2,0,0,0,1
430,2022-03-07T07:09:00,0.5,南東,1.5,東南東,0,94.9,0,0,0,1
431,2022-03-07T07:10:00,0.5,南南東,1.5,東南東,0,94.7,0,0,0,1
432,2022-03-07T07:11:00,0.5,南南東,1.5,東南東,0,94.8,0,0,0,1
433,2022-03-07T07:12:00,0.4,南南東,1.5,東南東,0.2,95.1,0,0,0,1
434,2022-03-07T07:13:00,0.4,南南東,1.5,東南東,0.2,95.2,0,0,0,1